Torna al catalogo

NOAA 16 DEB

AttivoSSO
NORAD 41245·DEBRIS·🇺🇸 United States

Lanciato Sep 21, 2000 da Vandenberg Space Force Base

Loading…

Prossimi Passaggi (prossime 24 ore)

TLE

AggiornatoSource: Space-Track

Epoca: Sep 12, 2026, 06:33 UTC

1 41245U 00055EV  26255.27331516  .00001266  00000-0  61015-3 0  9995
2 41245  98.5170 273.9810 0014347 190.0669 170.0223 14.20380594550975

Traccia NOAA 16 DEB in tempo reale con AllMySat

Download on the App Store